Regional Weather Roundup
Issued by NWS

Home | Current Version | Previous Version | Graphics & Text | Print | Product List | Glossary On
Versions: 1 2 3 4 5 6 7 8 9 10 11 12 13 14 15 16 17 18 19 20 21 22 23 24 25 26 27 28 29 30 31 32 33 34 35 36 37 38 39 40 41 42 43 44 45 46 47 48 49 50
000
ASUS45 KCYS 031810
RWRWY

WYOMING REGIONAL WEATHER ROUNDUP
NATIONAL WEATHER SERVICE CHEYENNE WY
1200 PM MDT SUN MAY 03 2015

NOTE:  "FAIR" INDICATES FEW OR NO CLOUDS BELOW 12,000 FEET
WITH NO SIGNIFICANT WEATHER AND/OR OBSTRUCTIONS TO VISIBILITY.

WYZ001-031900-
YELLOWSTONE NATIONAL PARK

CITY           SKY/WX    TMP DP  RH WIND       PRES   REMARKS
LK YELLOWSTONE   N/A     55  21  26 W9        30.07R
6HR MIN TEMP:  27; 6HR MAX TEMP:  55;

W YELLOWSTONE  NOT AVBL

$$
WYZ002>013-054>058-071-098>099-031900-
NORTHERN WYOMING

CITY           SKY/WX    TMP DP  RH WIND       PRES   REMARKS
JACKSON        SUNNY     59  30  33 S16       30.03S
CODY           FAIR      54  34  47 NE12G17   30.01S
GREYBULL       FAIR      64  33  31 NW10      29.97F
6HR MIN TEMP:  48; 6HR MAX TEMP:  64;

WORLAND        FAIR      59  35  40 N7        29.99F
6HR MIN TEMP:  47; 6HR MAX TEMP:  59;

SHERIDAN       CLOUDY    57  35  43 CALM      30.04S
6HR MIN TEMP:  42; 6HR MAX TEMP:  58;

BUFFALO        PTSUNNY   58  38  47 MISG      30.05S
6HR MIN TEMP:  47; 6HR MAX TEMP:  58;

GILLETTE       FAIR      61  36  39 E9        30.03R
6HR MIN TEMP:  44; 6HR MAX TEMP:  61;

HULETT         FAIR      61  36  39 E10G17    30.05R
NEWCASTLE      FAIR      64  32  29 SW14G20   29.99R

$$
WYZ014>020-022>026-101>103-031900-
CENTRAL WYOMING

CITY           SKY/WX    TMP DP  RH WIND       PRES   REMARKS
BIG PINEY      FAIR      59  30  33 VRB6      30.06F
6HR MIN TEMP:  32; 6HR MAX TEMP:  60;

PINEDALE       FAIR      57  32  38 CALM      30.07F
DUBOIS         MOCLDY    59  25  27 W20G25    30.03F
LANDER         FAIR      64  34  32 NW12      29.99S
6HR MIN TEMP:  50; 6HR MAX TEMP:  65;

RIVERTON       FAIR      66  32  28 N14G20    29.99S
6HR MIN TEMP:  48; 6HR MAX TEMP:  66;

CASPER         FAIR      62  36  37 N8        30.01F
6HR MIN TEMP:  38; 6HR MAX TEMP:  64;

DOUGLAS        FAIR      64  35  34 CALM      30.01S
6HR MIN TEMP:  46; 6HR MAX TEMP:  64;


$$
WYZ021-027>030-104>119-031900-
SOUTHERN WYOMING

CITY           SKY/WX    TMP DP  RH WIND       PRES   REMARKS
EVANSTON       TSTM      49  38  65 NW7       30.07R
6HR MIN TEMP:  46; 6HR MAX TEMP:  63; 6HR PCP:  0.15;

KEMMERER       CLOUDY    59  32  36 SW5       30.06F
FORT BRIDGER   CLEAR     66  32  28 NW13      30.08F
ROCK SPRINGS   FAIR      59  37  44 VRB6      30.06F
6HR MIN TEMP:  45; 6HR MAX TEMP:  59; 6HR PCP: TRACE;

DIXON          FAIR      65  36  34 SW6       30.07F
RAWLINS        PTSUNNY   66  29  24 W17G25    30.05S
6HR MIN TEMP:  50; 6HR MAX TEMP:  67;

SARATOGA       CLOUDY    61  32  33 N8        30.06S
LARAMIE        LGT RAIN  60  35  39 MISG      30.07S
6HR MIN TEMP:  42; 6HR MAX TEMP:  62; 6HR PCP: TRACE;

CHEYENNE       FAIR      68  31  25 N13       30.02F
6HR MIN TEMP:  52; 6HR MAX TEMP:  68;

TORRINGTON     FAIR      66  37  34 NE17      29.98R
6HR MIN TEMP:  47; 6HR MAX TEMP:  67;

PINE BLUFFS    FAIR      64  36  34 N15G22    30.00S

$$


USA.gov is the U.S. government's official web portal to all federal, state and local government web resources and services.